カタログに戻る

STARLINK-3968

運用中通信VLEO
NORAD 52639·PAYLOAD·🇺🇸 United States

打ち上げ May 14, 2022 から Cape Canaveral Space Force Station

Loading…

次のパス (今後24時間)

TLE

最新Source: CelesTrak SupGP

元期: Sep 15, 2026, 02:34 UTC

1 52639C 22052AT  26258.10743056  .00038583  00000+0  11400-2 0  2587
2 52639  53.1577 117.2644 0001128  80.4821  91.0624 15.34370297    19

AllMySatでSTARLINK-3968をリアルタイム追跡

Download on the App Store